owner,sensor,date,latitude,longitude,vertical_datum,wind_speed,wind_to_direction,wind_speed_of_gust,qcFlag 
TABS,ioos:station:wmo:42044:1,2002-06-01T01:39:00Z,26.1914,-97.0507,0.0,6.126744649,6.278002918,9.03,'11111222,11111222,11111222' 
TABS,ioos:station:wmo:42044:1,2002-06-01T02:09:00Z,26.1914,-97.0507,0.0,5.667186251,23.17177546,8.68,'11111222,11111222,11111222' 
TABS,ioos:station:wmo:42044:1,2002-06-01T06:09:00Z,26.1914,-97.0507,0.0,3.799052513,5.740382756,5.54,'11111222,11111222,11111222' 
TABS,ioos:station:wmo:42044:1,2002-06-01T07:09:00Z,26.1914,-97.0507,0.0,3.388126326,354.0704609,5.73,'11111222,11111222,11111222' 
TABS,ioos:station:wmo:42044:1,2002-06-01T09:39:00Z,26.1914,-97.0507,0.0,2.293141949,357.0001412,4.03,'11111222,11111222,11111222' 
TABS,ioos:station:wmo:42044:1,2002-06-01T10:09:00Z,26.1914,-97.0507,0.0,3.0945759,339.5738125,4.62,'11111222,11111222,11111222' 
TABS,ioos:station:wmo:42044:1,2002-06-01T11:39:00Z,26.1914,-97.0507,0.0,2.491766442,344.4018644,4.39,'11111222,11111222,11111222' 
TABS,ioos:station:wmo:42044:1,2002-06-01T12:09:00Z,26.1914,-97.0507,0.0,2.403539057,342.3187304,4.43,'11111222,11111222,11111222' 
TABS,ioos:station:wmo:42044:1,2002-06-01T13:39:00Z,26.1914,-97.0507,0.0,5.585409564,281.1489636,7.92,'11111222,11111222,11111222' 
TABS,ioos:station:wmo:42044:1,2002-06-01T15:39:00Z,26.1914,-97.0507,0.0,3.460303455,294.0464934,5.15,'11111222,11111222,11111222' 
TABS,ioos:station:wmo:42044:1,2002-06-01T19:39:00Z,26.1914,-97.0507,0.0,5.89565942,15.54467253,7.75,'11111222,11111222,11111222' 
TABS,ioos:station:wmo:42044:1,2002-06-01T20:09:00Z,26.1914,-97.0507,0.0,5.960914359,18.58667274,7.87,'11111222,11111222,11111222' 
TABS,ioos:station:wmo:42044:1,2002-06-01T21:09:00Z,26.1914,-97.0507,0.0,6.069266842,15.08927868,7.74,'11111222,11111222,11111222' 
TABS,ioos:station:wmo:42044:1,2002-06-01T22:09:00Z,26.1914,-97.0507,0.0,6.166295484,10.65366723,8.31,'11111222,11111222,11111222' 
TABS,ioos:station:wmo:42044:1,2002-06-01T23:09:00Z,26.1914,-97.0507,0.0,6.780398218,21.00085008,8.67,'11111222,11111222,11111222' 
TABS,ioos:station:wmo:42044:1,2002-06-01T23:39:00Z,26.1914,-97.0507,0.0,5.808476564,28.59443742,7.93,'11111222,11111222,11111222' 
TABS,ioos:station:wmo:42044:1,2002-06-02T00:09:00Z,26.1914,-97.0507,0.0,6.122850643,23.38263456,8.66,'11111222,11111222,11111222' 
TABS,ioos:station:wmo:42044:1,2002-06-02T00:39:00Z,26.1914,-97.0507,0.0,5.40940847,44.77499666,7.97,'11111222,11111222,11111222' 
TABS,ioos:station:wmo:42044:1,2002-06-02T03:09:00Z,26.1914,-97.0507,0.0,5.371945644,82.83489182,7.97,'11111222,11111222,11111222' 
TABS,ioos:station:wmo:42044:1,2002-06-02T03:39:00Z,26.1914,-97.0507,0.0,5.861953599,98.33784586,8.37,'11111222,11111222,11111222' 
TABS,ioos:station:wmo:42044:1,2002-06-02T04:09:00Z,26.1914,-97.0507,0.0,5.422075248,88.41431088,8.13,'11111222,11111222,11111222' 
TABS,ioos:station:wmo:42044:1,2002-06-02T05:09:00Z,26.1914,-97.0507,0.0,6.213919858,113.9254057,8.78,'11111222,11111222,11111222' 
TABS,ioos:station:wmo:42044:1,2002-06-02T06:09:00Z,26.1914,-97.0507,0.0,6.593102456,97.93386618,9.53,'11111222,11111222,11111222' 
TABS,ioos:station:wmo:42044:1,2002-06-02T07:09:00Z,26.1914,-97.0507,0.0,6.323827955,116.0791785,8.95,'11111222,11111222,11111222' 
TABS,ioos:station:wmo:42044:1,2002-06-02T07:39:00Z,26.1914,-97.0507,0.0,5.691484868,125.5614207,8.39,'11111222,11111222,11111222' 
TABS,ioos:station:wmo:42044:1,2002-06-02T08:39:00Z,26.1914,-97.0507,0.0,6.088653381,124.6300262,8.65,'11111222,11111222,11111222' 
TABS,ioos:station:wmo:42044:1,2002-06-02T13:09:00Z,26.1914,-97.0507,0.0,6.25965654,128.1884038,8.44,'11111222,11111222,11111222' 
TABS,ioos:station:wmo:42044:1,2002-06-02T14:09:00Z,26.1914,-97.0507,0.0,5.944047443,128.3741145,7.96,'11111222,11111222,11111222' 
TABS,ioos:station:wmo:42044:1,2002-06-02T14:39:00Z,26.1914,-97.0507,0.0,4.974675869,127.8147071,7.83,'11111222,11111222,11111222' 
TABS,ioos:station:wmo:42044:1,2002-06-02T16:39:00Z,26.1914,-97.0507,0.0,5.318204584,149.239767,7.44,'11111222,11111222,11111222' 
TABS,ioos:station:wmo:42044:1,2002-06-02T18:09:00Z,26.1914,-97.0507,0.0,5.498017825,127.0161285,7.67,'11111222,11111222,11111222' 
TABS,ioos:station:wmo:42044:1,2002-06-02T19:09:00Z,26.1914,-97.0507,0.0,6.108002947,143.1866816,8.34,'11111222,11111222,11111222' 
TABS,ioos:station:wmo:42044:1,2002-06-02T20:09:00Z,26.1914,-97.0507,0.0,6.252071657,130.9793449,8.48,'11111222,11111222,11111222' 
TABS,ioos:station:wmo:42044:1,2002-06-02T20:39:00Z,26.1914,-97.0507,0.0,7.022371394,134.1348884,9.32,'11111222,11111222,11111222' 
TABS,ioos:station:wmo:42044:1,2002-06-02T21:39:00Z,26.1914,-97.0507,0.0,5.667186251,113.1724068,8.86,'11111222,11111222,11111222' 
TABS,ioos:station:wmo:42044:1,2002-06-02T22:09:00Z,26.1914,-97.0507,0.0,5.926921629,136.2308205,8.01,'11111222,11111222,11111222' 
TABS,ioos:station:wmo:42044:1,2002-06-02T23:39:00Z,26.1914,-97.0507,0.0,5.562032003,122.5189413,7.97,'11111222,11111222,11111222' 
TABS,ioos:station:wmo:42044:1,2002-06-03T01:39:00Z,26.1914,-97.0507,0.0,7.621705846,121.4798035,11.3,'11111222,11111222,11111222' 
TABS,ioos:station:wmo:42044:1,2002-06-03T02:09:00Z,26.1914,-97.0507,0.0,7.445266953,137.3953156,10.64,'11111222,11111222,11111222' 
TABS,ioos:station:wmo:42044:1,2002-06-03T05:39:00Z,26.1914,-97.0507,0.0,7.335673112,167.0817294,10.26,'11111222,11111222,11111222' 
TABS,ioos:station:wmo:42044:1,2002-06-03T09:09:00Z,26.1914,-97.0507,0.0,7.096604822,172.1441576,10.03,'11111222,11111222,11111222' 
TABS,ioos:station:wmo:42044:1,2002-06-03T10:39:00Z,26.1914,-97.0507,0.0,6.938616577,168.5283613,9.61,'11111222,11111222,11111222' 
TABS,ioos:station:wmo:42044:1,2002-06-03T11:09:00Z,26.1914,-97.0507,0.0,7.570006605,163.8157315,9.64,'11111222,11111222,11111222' 
TABS,ioos:station:wmo:42044:1,2002-06-03T12:09:00Z,26.1914,-97.0507,0.0,6.689611349,165.2784791,9.56,'11111222,11111222,11111222' 
TABS,ioos:station:wmo:42044:1,2002-06-03T12:39:00Z,26.1914,-97.0507,0.0,7.010370889,164.9530051,9.66,'11111222,11111222,11111222' 
TABS,ioos:station:wmo:42044:1,2002-06-03T13:09:00Z,26.1914,-97.0507,0.0,7.798269039,171.3713746,10.39,'11111222,11111222,11111222' 
TABS,ioos:station:wmo:42044:1,2002-06-03T13:39:00Z,26.1914,-97.0507,0.0,8.538014992,171.3101908,11.79,'11111222,11111222,11111222' 
TABS,ioos:station:wmo:42044:1,2002-06-03T14:39:00Z,26.1914,-97.0507,0.0,8.693221497,172.0658655,11.2,'11111222,11111222,11111222' 
TABS,ioos:station:wmo:42044:1,2002-06-03T15:09:00Z,26.1914,-97.0507,0.0,8.107897385,173.7692869,11.05,'11111222,11111222,11111222' 
TABS,ioos:station:wmo:42044:1,2002-06-03T16:39:00Z,26.1914,-97.0507,0.0,7.664280788,170.5379104,10.38,'11111222,11111222,11111222' 
TABS,ioos:station:wmo:42044:1,2002-06-03T17:09:00Z,26.1914,-97.0507,0.0,7.362506367,173.8405052,9.97,'11111222,11111222,11111222' 
TABS,ioos:station:wmo:42044:1,2002-06-03T17:39:00Z,26.1914,-97.0507,0.0,7.617151699,168.7198079,10.26,'11111222,11111222,11111222' 
TABS,ioos:station:wmo:42044:1,2002-06-03T19:09:00Z,26.1914,-97.0507,0.0,7.935672624,170.205559,10.12,'11111222,11111222,11111222' 
TABS,ioos:station:wmo:42044:1,2002-06-03T21:09:00Z,26.1914,-97.0507,0.0,8.065884948,174.5935648,11.19,'11111222,11111222,11111222' 
TABS,ioos:station:wmo:42044:1,2002-06-03T23:39:00Z,26.1914,-97.0507,0.0,8.246750875,158.069837,10.86,'11111222,11111222,11111222' 
TABS,ioos:station:wmo:42044:1,2002-06-04T00:39:00Z,26.1914,-97.0507,0.0,7.923641839,158.064576,10.72,'11111222,11111222,11111222' 
TABS,ioos:station:wmo:42044:1,2002-06-04T01:09:00Z,26.1914,-97.0507,0.0,8.063851437,157.3148115,10.64,'11111222,11111222,11111222' 
TABS,ioos:station:wmo:42044:1,2002-06-04T02:39:00Z,26.1914,-97.0507,0.0,9.683078023,157.4077081,13.45,'11111222,11111222,11111222' 
TABS,ioos:station:wmo:42044:1,2002-06-04T03:39:00Z,26.1914,-97.0507,0.0,9.213929672,165.9941634,12.47,'11111222,11111222,11111222' 
TABS,ioos:station:wmo:42044:1,2002-06-04T05:09:00Z,26.1914,-97.0507,0.0,8.909736247,173.3617694,12.63,'11111222,11111222,11111222' 
TABS,ioos:station:wmo:42044:1,2002-06-04T06:09:00Z,26.1914,-97.0507,0.0,9.163847445,170.9593455,12.56,'11111222,11111222,11111222' 
TABS,ioos:station:wmo:42044:1,2002-06-04T06:39:00Z,26.1914,-97.0507,0.0,8.6737881,173.0472692,12.52,'11111222,11111222,11111222' 
TABS,ioos:station:wmo:42044:1,2002-06-04T08:09:00Z,26.1914,-97.0507,0.0,8.572245913,174.3095827,11.85,'11111222,11111222,11111222' 
TABS,ioos:station:wmo:42044:1,2002-06-04T08:39:00Z,26.1914,-97.0507,0.0,8.69821246,175.384277,11.78,'11111222,11111222,11111222' 
TABS,ioos:station:wmo:42044:1,2002-06-04T09:09:00Z,26.1914,-97.0507,0.0,8.496458086,175.4773871,11.15,'11111222,11111222,11111222' 
TABS,ioos:station:wmo:42044:1,2002-06-04T10:39:00Z,26.1914,-97.0507,0.0,8.584899533,178.0643813,11.42,'11111222,11111222,11111222' 
TABS,ioos:station:wmo:42044:1,2002-06-04T11:39:00Z,26.1914,-97.0507,0.0,9.396701549,176.5836303,12.25,'11111222,11111222,11111222' 
TABS,ioos:station:wmo:42044:1,2002-06-04T13:39:00Z,26.1914,-97.0507,0.0,8.578607113,175.3197778,12.25,'11111222,11111222,11111222' 
TABS,ioos:station:wmo:42044:1,2002-06-04T18:09:00Z,26.1914,-97.0507,0.0,9.357975208,166.7807564,12.14,'11111222,11111222,11111222' 
TABS,ioos:station:wmo:42044:1,2002-06-04T19:39:00Z,26.1914,-97.0507,0.0,8.75079425,166.2498405,12.01,'11111222,11111222,11111222' 
TABS,ioos:station:wmo:42044:1,2002-06-04T22:39:00Z,26.1914,-97.0507,0.0,9.472539258,150.3229201,12.6,'11111222,11111222,11111222' 
TABS,ioos:station:wmo:42044:1,2002-06-04T23:39:00Z,26.1914,-97.0507,0.0,8.423419733,155.7477104,10.95,'11111222,11111222,11111222' 
TABS,ioos:station:wmo:42044:1,2002-06-05T00:09:00Z,26.1914,-97.0507,0.0,8.245059127,154.9581869,10.55,'11111222,11111222,11111222' 
TABS,ioos:station:wmo:42044:1,2002-06-05T02:39:00Z,26.1914,-97.0507,0.0,8.657857703,156.0109002,11.83,'11111222,11111222,11111222' 
TABS,ioos:station:wmo:42044:1,2002-06-05T06:09:00Z,26.1914,-97.0507,0.0,8.093466501,159.6844973,10.45,'11111222,11111222,11111222' 
TABS,ioos:station:wmo:42044:1,2002-06-05T06:39:00Z,26.1914,-97.0507,0.0,7.093687335,163.4557325,9.66,'11111222,11111222,11111222' 
TABS,ioos:station:wmo:42044:1,2002-06-05T09:09:00Z,26.1914,-97.0507,0.0,7.085146435,149.743844,9.58,'11111222,11111222,11111222' 
TABS,ioos:station:wmo:42044:1,2002-06-05T09:39:00Z,26.1914,-97.0507,0.0,6.987882369,157.8029808,10.12,'11111222,11111222,11111222' 
TABS,ioos:station:wmo:42044:1,2002-06-05T10:09:00Z,26.1914,-97.0507,0.0,7.21176816,151.8717086,9.99,'11111222,11111222,11111222' 
TABS,ioos:station:wmo:42044:1,2002-06-05T12:39:00Z,26.1914,-97.0507,0.0,6.357082664,166.4449134,8.68,'11111222,11111222,11111222' 
TABS,ioos:station:wmo:42044:1,2002-06-05T13:39:00Z,26.1914,-97.0507,0.0,6.160324667,162.0358949,8.41,'11111222,11111222,11111222' 
TABS,ioos:station:wmo:42044:1,2002-06-05T15:39:00Z,26.1914,-97.0507,0.0,3.609667575,156.4890419,5.64,'11111222,11111222,11111222' 
TABS,ioos:station:wmo:42044:1,2002-06-05T16:39:00Z,26.1914,-97.0507,0.0,4.167505249,132.9583817,6.43,'11111222,11111222,11111222' 
TABS,ioos:station:wmo:42044:1,2002-06-05T17:39:00Z,26.1914,-97.0507,0.0,4.496776623,120.6144792,6.43,'11111222,11111222,11111222' 
TABS,ioos:station:wmo:42044:1,2002-06-05T20:09:00Z,26.1914,-97.0507,0.0,6.106471977,61.96579275,8.92,'11111222,11111222,11111222' 
TABS,ioos:station:wmo:42044:1,2002-06-05T20:39:00Z,26.1914,-97.0507,0.0,6.031450903,57.73246467,8.5,'11111222,11111222,11111222' 
TABS,ioos:station:wmo:42044:1,2002-06-05T21:09:00Z,26.1914,-97.0507,0.0,6.886254425,42.58680395,9.43,'11111222,11111222,11111222' 
TABS,ioos:station:wmo:42044:1,2002-06-05T23:39:00Z,26.1914,-97.0507,0.0,6.688086423,37.16087417,9.58,'11111222,11111222,11111222' 
TABS,ioos:station:wmo:42044:1,2002-06-06T01:09:00Z,26.1914,-97.0507,0.0,6.602984174,41.43866776,9.57,'11111222,11111222,11111222' 
TABS,ioos:station:wmo:42044:1,2002-06-06T02:09:00Z,26.1914,-97.0507,0.0,5.964193156,36.40847897,8.85,'11111222,11111222,11111222' 
TABS,ioos:station:wmo:42044:1,2002-06-06T02:39:00Z,26.1914,-97.0507,0.0,6.134044343,43.08393521,8.75,'11111222,11111222,11111222' 
TABS,ioos:station:wmo:42044:1,2002-06-06T04:09:00Z,26.1914,-97.0507,0.0,5.780008651,53.22889497,8.6,'11111222,11111222,11111222' 
TABS,ioos:station:wmo:42044:1,2002-06-06T04:39:00Z,26.1914,-97.0507,0.0,4.714498913,58.9733679,7.85,'11111222,11111222,11111222' 
TABS,ioos:station:wmo:42044:1,2002-06-06T06:09:00Z,26.1914,-97.0507,0.0,4.395600073,73.74984022,6.84,'11111222,11111222,11111222' 
TABS,ioos:station:wmo:42044:1,2002-06-06T06:39:00Z,26.1914,-97.0507,0.0,3.567323927,70.85359371,6.18,'11111222,11111222,11111222' 
TABS,ioos:station:wmo:42044:1,2002-06-06T08:39:00Z,26.1914,-97.0507,0.0,2.140840956,88.39357985,4.04,'11111222,11111222,11111222' 
TABS,ioos:station:wmo:42044:1,2002-06-06T10:09:00Z,26.1914,-97.0507,0.0,1.372443077,46.77114991,3.51,'11111222,11111222,11111222' 
TABS,ioos:station:wmo:42044:1,2002-06-06T10:39:00Z,26.1914,-97.0507,0.0,2.081946205,50.65217458,3.67,'11111222,11111222,11111222' 
TABS,ioos:station:wmo:42044:1,2002-06-06T11:09:00Z,26.1914,-97.0507,0.0,2.550313706,329.6140513,4.37,'11111222,11111222,11111222' 
TABS,ioos:station:wmo:42044:1,2002-06-06T11:39:00Z,26.1914,-97.0507,0.0,4.809074755,313.9889001,6.77,'11111222,11111222,11111222' 
TABS,ioos:station:wmo:42044:1,2002-06-06T12:09:00Z,26.1914,-97.0507,0.0,2.826039632,318.2990004,4.44,'11111222,11111222,11111222' 
TABS,ioos:station:wmo:42044:1,2002-06-06T12:39:00Z,26.1914,-97.0507,0.0,4.495653456,339.8316247,6.06,'11111222,11111222,11111222' 
TABS,ioos:station:wmo:42044:1,2002-06-06T13:39:00Z,26.1914,-97.0507,0.0,5.347419939,341.4632358,7.24,'11111222,11111222,11111222' 
TABS,ioos:station:wmo:42044:1,2002-06-06T14:09:00Z,26.1914,-97.0507,0.0,6.082146003,333.6454453,7.94,'11111222,11111222,11111222' 
TABS,ioos:station:wmo:42044:1,2002-06-06T14:39:00Z,26.1914,-97.0507,0.0,6.507995083,347.757487,8.54,'11111222,11111222,11111222' 
TABS,ioos:station:wmo:42044:1,2002-06-06T15:09:00Z,26.1914,-97.0507,0.0,6.455857805,347.3843746,8.61,'11111222,11111222,11111222' 
TABS,ioos:station:wmo:42044:1,2002-06-06T16:39:00Z,26.1914,-97.0507,0.0,6.447053591,354.7490507,8.53,'11111222,11111222,11111222' 
TABS,ioos:station:wmo:42044:1,2002-06-06T17:09:00Z,26.1914,-97.0507,0.0,5.821511831,355.0726911,8.69,'11111222,11111222,11111222' 
TABS,ioos:station:wmo:42044:1,2002-06-06T19:39:00Z,26.1914,-97.0507,0.0,6.088653381,354.4390264,8.22,'11111222,11111222,11111222' 
TABS,ioos:station:wmo:42044:1,2002-06-06T20:39:00Z,26.1914,-97.0507,0.0,7.334425676,7.599577385,9.2,'11111222,11111222,11111222' 
TABS,ioos:station:wmo:42044:1,2002-06-06T21:09:00Z,26.1914,-97.0507,0.0,6.973643237,14.8729553,9.86,'11111222,11111222,11111222' 
TABS,ioos:station:wmo:42044:1,2002-06-06T21:39:00Z,26.1914,-97.0507,0.0,6.76870741,22.13124276,9.18,'11111222,11111222,11111222' 
TABS,ioos:station:wmo:42044:1,2002-06-06T22:39:00Z,26.1914,-97.0507,0.0,6.485445243,20.11116238,8.77,'11111222,11111222,11111222' 
TABS,ioos:station:wmo:42044:1,2002-06-07T00:39:00Z,26.1914,-97.0507,0.0,5.804007236,39.47663961,8.36,'11111222,11111222,11111222' 
TABS,ioos:station:wmo:42044:1,2002-06-07T01:39:00Z,26.1914,-97.0507,0.0,6.653540411,71.23789566,9.35,'11111222,11111222,11111222' 
TABS,ioos:station:wmo:42044:1,2002-06-07T02:09:00Z,26.1914,-97.0507,0.0,7.018219147,74.71585539,9.53,'11111222,11111222,11111222' 
TABS,ioos:station:wmo:42044:1,2002-06-07T03:09:00Z,26.1914,-97.0507,0.0,7.229453645,85.79539426,10.12,'11111222,11111222,11111222' 
TABS,ioos:station:wmo:42044:1,2002-06-07T04:39:00Z,26.1914,-97.0507,0.0,5.632850078,101.9885863,8.24,'11111222,11111222,11111222' 
TABS,ioos:station:wmo:42044:1,2002-06-07T05:39:00Z,26.1914,-97.0507,0.0,5.768474668,127.605261,8.08,'11111222,11111222,11111222' 
TABS,ioos:station:wmo:42044:1,2002-06-07T06:09:00Z,26.1914,-97.0507,0.0,5.032265891,119.2650733,7.26,'11111222,11111222,11111222' 
TABS,ioos:station:wmo:42044:1,2002-06-07T07:09:00Z,26.1914,-97.0507,0.0,4.385031357,124.1252829,6.13,'11111222,11111222,11111222' 
TABS,ioos:station:wmo:42044:1,2002-06-07T08:39:00Z,26.1914,-97.0507,0.0,2.246619683,146.8053569,4.39,'11111222,11111222,11111222' 
TABS,ioos:station:wmo:42044:1,2002-06-07T09:09:00Z,26.1914,-97.0507,0.0,2.321421978,146.2417682,3.75,'11111222,11111222,11111222' 
TABS,ioos:station:wmo:42044:1,2002-06-07T10:39:00Z,26.1914,-97.0507,0.0,2.183048327,75.13582222,3.8,'11111222,11111222,11111222' 
TABS,ioos:station:wmo:42044:1,2002-06-07T11:09:00Z,26.1914,-97.0507,0.0,2.505992817,61.38918632,4.13,'11111222,11111222,11111222' 
TABS,ioos:station:wmo:42044:1,2002-06-07T12:09:00Z,26.1914,-97.0507,0.0,2.939693862,65.26533439,4.44,'11111222,11111222,11111222' 
TABS,ioos:station:wmo:42044:1,2002-06-07T12:39:00Z,26.1914,-97.0507,0.0,2.875639059,86.41082451,4.63,'11111222,11111222,11111222' 
TABS,ioos:station:wmo:42044:1,2002-06-07T13:09:00Z,26.1914,-97.0507,0.0,3.253459697,92.64296003,4.46,'11111222,11111222,11111222' 
TABS,ioos:station:wmo:42044:1,2002-06-07T14:09:00Z,26.1914,-97.0507,0.0,3.402425605,113.9286577,5.01,'11111222,11111222,11111222' 
TABS,ioos:station:wmo:42044:1,2002-06-07T15:09:00Z,26.1914,-97.0507,0.0,2.317002374,175.544618,3.45,'11111222,11111222,11111222' 
TABS,ioos:station:wmo:42044:1,2002-06-07T17:09:00Z,26.1914,-97.0507,0.0,5.107269329,120.7332306,6.73,'11111222,11111222,11111222' 
TABS,ioos:station:wmo:42044:1,2002-06-07T20:39:00Z,26.1914,-97.0507,0.0,5.831569257,141.1256733,7.48,'11111222,11111222,11111222' 
TABS,ioos:station:wmo:42044:1,2002-06-07T23:09:00Z,26.1914,-97.0507,0.0,6.124744893,148.2824687,7.91,'11111222,11111222,11111222' 
TABS,ioos:station:wmo:42044:1,2002-06-07T23:39:00Z,26.1914,-97.0507,0.0,6.212664485,146.1567516,8.03,'11111222,11111222,11111222' 
TABS,ioos:station:wmo:42044:1,2002-06-08T00:09:00Z,26.1914,-97.0507,0.0,6.751192487,151.802984,8.31,'11111222,11111222,11111222' 
TABS,ioos:station:wmo:42044:1,2002-06-08T01:09:00Z,26.1914,-97.0507,0.0,7.022997935,152.1581415,9.03,'11111222,11111222,11111222' 
TABS,ioos:station:wmo:42044:1,2002-06-08T01:39:00Z,26.1914,-97.0507,0.0,7.72472006,151.2122308,9.54,'11111222,11111222,11111222' 
TABS,ioos:station:wmo:42044:1,2002-06-08T03:09:00Z,26.1914,-97.0507,0.0,7.588306794,151.6790654,9.87,'11111222,11111222,11111222' 
TABS,ioos:station:wmo:42044:1,2002-06-08T04:09:00Z,26.1914,-97.0507,0.0,7.216924553,159.0539474,9.24,'11111222,11111222,11111222' 
TABS,ioos:station:wmo:42044:1,2002-06-08T04:39:00Z,26.1914,-97.0507,0.0,6.741661516,159.1458012,9.17,'11111222,11111222,11111222' 
TABS,ioos:station:wmo:42044:1,2002-06-08T05:09:00Z,26.1914,-97.0507,0.0,6.660105104,154.4740481,8.83,'11111222,11111222,11111222' 
TABS,ioos:station:wmo:42044:1,2002-06-08T05:39:00Z,26.1914,-97.0507,0.0,7.337574531,162.5530628,9.66,'11111222,11111222,11111222' 
TABS,ioos:station:wmo:42044:1,2002-06-08T06:39:00Z,26.1914,-97.0507,0.0,7.196450514,166.5819269,9.89,'11111222,11111222,11111222' 
TABS,ioos:station:wmo:42044:1,2002-06-08T07:09:00Z,26.1914,-97.0507,0.0,7.160342171,166.7597215,9.79,'11111222,11111222,11111222' 
TABS,ioos:station:wmo:42044:1,2002-06-08T08:39:00Z,26.1914,-97.0507,0.0,6.698686438,175.7195965,8.82,'11111222,11111222,11111222' 
TABS,ioos:station:wmo:42044:1,2002-06-08T10:39:00Z,26.1914,-97.0507,0.0,6.55024427,192.6997653,9.0,'11111222,11111222,11111222' 
TABS,ioos:station:wmo:42044:1,2002-06-08T11:39:00Z,26.1914,-97.0507,0.0,5.715916374,182.6073182,7.79,'11111222,11111222,11111222' 
TABS,ioos:station:wmo:42044:1,2002-06-08T13:39:00Z,26.1914,-97.0507,0.0,5.972478547,172.3992454,7.6,'11111222,11111222,11111222' 
TABS,ioos:station:wmo:42044:1,2002-06-08T14:09:00Z,26.1914,-97.0507,0.0,7.023531875,171.154834,8.94,'11111222,11111222,11111222' 
TABS,ioos:station:wmo:42044:1,2002-06-08T15:39:00Z,26.1914,-97.0507,0.0,7.015760828,176.1589825,9.41,'11111222,11111222,11111222' 
TABS,ioos:station:wmo:42044:1,2002-06-08T16:09:00Z,26.1914,-97.0507,0.0,7.283302822,176.5367483,9.1,'11111222,11111222,11111222' 
TABS,ioos:station:wmo:42044:1,2002-06-08T18:09:00Z,26.1914,-97.0507,0.0,7.562916104,178.4090739,9.69,'11111222,11111222,11111222' 
TABS,ioos:station:wmo:42044:1,2002-06-08T18:39:00Z,26.1914,-97.0507,0.0,7.346209907,175.1588558,10.01,'11111222,11111222,11111222' 
TABS,ioos:station:wmo:42044:1,2002-06-08T19:39:00Z,26.1914,-97.0507,0.0,8.170495701,179.3690722,10.17,'11111222,11111222,11111222' 
TABS,ioos:station:wmo:42044:1,2002-06-08T20:09:00Z,26.1914,-97.0507,0.0,7.629469182,182.8551086,9.87,'11111222,11111222,11111222' 
TABS,ioos:station:wmo:42044:1,2002-06-08T21:39:00Z,26.1914,-97.0507,0.0,7.526652642,169.8996498,9.86,'11111222,11111222,11111222' 
TABS,ioos:station:wmo:42044:1,2002-06-09T00:09:00Z,26.1914,-97.0507,0.0,8.167649601,155.6317858,10.87,'11111222,11111222,11111222' 
TABS,ioos:station:wmo:42044:1,2002-06-09T00:39:00Z,26.1914,-97.0507,0.0,7.757138648,150.3286902,10.72,'11111222,11111222,11111222' 
TABS,ioos:station:wmo:42044:1,2002-06-09T01:39:00Z,26.1914,-97.0507,0.0,8.24293637,146.5801185,11.08,'11111222,11111222,11111222' 
TABS,ioos:station:wmo:42044:1,2002-06-09T04:09:00Z,26.1914,-97.0507,0.0,9.891294152,154.9378833,13.15,'11111222,11111222,11111222' 
TABS,ioos:station:wmo:42044:1,2002-06-09T06:09:00Z,26.1914,-97.0507,0.0,9.720889877,160.0926854,13.05,'11111222,11111222,11111222' 
TABS,ioos:station:wmo:42044:1,2002-06-09T07:39:00Z,26.1914,-97.0507,0.0,8.640908517,170.8104333,12.23,'11111222,11111222,11111222' 
TABS,ioos:station:wmo:42044:1,2002-06-09T09:09:00Z,26.1914,-97.0507,0.0,8.77984624,176.1470764,11.86,'11111222,11111222,11111222' 
TABS,ioos:station:wmo:42044:1,2002-06-09T10:39:00Z,26.1914,-97.0507,0.0,7.589631085,174.9356536,10.93,'11111222,11111222,11111222' 
TABS,ioos:station:wmo:42044:1,2002-06-09T11:39:00Z,26.1914,-97.0507,0.0,8.140221127,180.4225294,11.23,'11111222,11111222,11111222' 
TABS,ioos:station:wmo:42044:1,2002-06-09T13:39:00Z,26.1914,-97.0507,0.0,8.037624027,177.5044706,11.78,'11111222,11111222,11111222' 
TABS,ioos:station:wmo:42044:1,2002-06-09T14:09:00Z,26.1914,-97.0507,0.0,8.195517067,172.2161708,10.84,'11111222,11111222,11111222' 
TABS,ioos:station:wmo:42044:1,2002-06-09T16:09:00Z,26.1914,-97.0507,0.0,9.592835869,169.4282775,12.91,'11111222,11111222,11111222' 
TABS,ioos:station:wmo:42044:1,2002-06-09T18:39:00Z,26.1914,-97.0507,0.0,8.6544555,176.6881842,11.73,'11111222,11111222,11111222' 
TABS,ioos:station:wmo:42044:1,2002-06-09T20:39:00Z,26.1914,-97.0507,0.0,8.400744015,175.9729144,11.28,'11111222,11111222,11111222' 
TABS,ioos:station:wmo:42044:1,2002-06-09T22:09:00Z,26.1914,-97.0507,0.0,7.987502739,172.0121486,10.47,'11111222,11111222,11111222' 
TABS,ioos:station:wmo:42044:1,2002-06-09T22:39:00Z,26.1914,-97.0507,0.0,8.054644623,166.1365246,10.49,'11111222,11111222,11111222' 
TABS,ioos:station:wmo:42044:1,2002-06-09T23:09:00Z,26.1914,-97.0507,0.0,8.207923002,165.320636,10.88,'11111222,11111222,11111222' 
TABS,ioos:station:wmo:42044:1,2002-06-10T01:09:00Z,26.1914,-97.0507,0.0,8.908714834,153.0325478,12.1,'11111222,11111222,11111222' 
TABS,ioos:station:wmo:42044:1,2002-06-10T01:39:00Z,26.1914,-97.0507,0.0,9.524715219,150.5016215,13.26,'11111222,11111222,11111222' 
TABS,ioos:station:wmo:42044:1,2002-06-10T02:09:00Z,26.1914,-97.0507,0.0,9.26180328,153.5182184,13.08,'11111222,11111222,11111222' 
TABS,ioos:station:wmo:42044:1,2002-06-10T03:39:00Z,26.1914,-97.0507,0.0,9.496546741,146.0759534,13.13,'11111222,11111222,11111222' 
TABS,ioos:station:wmo:42044:1,2002-06-10T04:39:00Z,26.1914,-97.0507,0.0,9.94537581,161.4742148,13.37,'11111222,11111222,11111222' 
TABS,ioos:station:wmo:42044:1,2002-06-10T05:09:00Z,26.1914,-97.0507,0.0,9.248637738,159.6254821,12.51,'11111222,11111222,11111222' 
TABS,ioos:station:wmo:42044:1,2002-06-10T05:39:00Z,26.1914,-97.0507,0.0,9.410021254,162.8169432,12.46,'11111222,11111222,11111222' 
TABS,ioos:station:wmo:42044:1,2002-06-10T09:09:00Z,26.1914,-97.0507,0.0,10.17814325,170.8988376,13.1,'11111222,11111222,11111222' 
TABS,ioos:station:wmo:42044:1,2002-06-10T13:39:00Z,26.1914,-97.0507,0.0,9.612294211,181.2520493,12.55,'11111222,11111222,11111222' 